[ hide orbit diagram ]
For accurate long-term ephemerides, please instead use our Horizons system.This orbit viewer was implemented using two-body methods, and hence should not be used for determining accurate long-term trajectories (over several years or decades) or planetary encounter circumstances.
Orbital Elements at Epoch 2459200.5 (2020-Dec-17.0) TDB
Reference: JPL 14 (heliocentric ecliptic J2000)
Element | Value | Uncertainty (1-sigma) | Units |
e | .2663790753239434 | 6.9424e-08 | |
a | 2.575616576522566 | 2.3809e-08 | au |
q | 1.889526214479464 | 1.8018e-07 | au |
i | 13.81078407338514 | 6.7332e-06 | deg |
node | 33.857542316167 | 3.3668e-05 | deg |
peri | 179.5739335024359 | 4.2338e-05 | deg |
M | 182.1276993587755 | 3.3356e-05 | deg |
tp | 2459946.478079154337 (2023-Jan-01.97807915) | 0.00014917 | TDB |
period | 1509.802861532902 4.13 | 2.0935e-05 5.732e-08 | d yr |
n | .2384417258518719 | 3.3063e-09 | deg/d |
Q | 3.261706938565668 | 3.0152e-08 | au |
|
| | Orbit Determination Parameters
Additional Information
|
[ show covariance matrix ]
Physical Parameter Table
Parameter |
Symbol |
Value |
Units |
Sigma |
Reference |
Notes |
absolute magnitude |
H |
16.5 |
|
n/a |
MPO437459 |
|
diameter |
diameter |
2.837 |
km |
0.030 |
urn:nasa:pds:neowise_diameters_albedos::2.0[mainbelt] (http://adsabs.harvard.edu/abs/2011ApJ...741...68M) |
|
geometric albedo |
albedo |
0.055 |
|
0.010 |
urn:nasa:pds:neowise_diameters_albedos::2.0[mainbelt] (http://adsabs.harvard.edu/abs/2011ApJ...741...68M) |
|
|
344436 (2002 GE12) Discovered 2002-Apr-15 by Yeung, W. K. Y. at Desert Eagle |
Reference: 20121128/Numbers.arc | Last Updated: 2012-12-03 |
|
[ show close-approach data ]
|